Wind_Speed
23 23 23 22 21 21 20 19 18 18 18 19 19 19 17 17 16 16 15 14 13 13 12 12 13 14 15 16 18 19 20 21 20 20 22 22 22 23 24 25 26 28 29
20 21 21 20 20 20 19 18 17 17 18 18 18 18 17 16 16 15 14 13 11 10 9 10 10 11 12 14 16 17 18 18 18 20 21 21 21 22 23 23 24 26 27
18 19 19 19 19 18 18 18 17 17 17 17 18 18 17 16 15 15 14 11 10 10 10 10 10 11 12 13 14 15 16 17 18 19 20 21 22 22 22 23 23 25 26
17 18 18 19 18 18 18 17 17 16 17 17 18 17 16 16 15 14 12 11 10 10 10 10 10 11 11 12 13 13 15 15 17 19 20 20 21 21 21 21 22 23 24
16 17 18 19 18 18 17 17 17 17 17 17 17 16 15 15 15 13 12 11 11 11 11 11 11 11 12 11 11 12 13 14 15 17 19 20 20 20 20 21 22 23 24
16 17 18 18 17 17 17 18 18 18 18 17 17 16 15 15 15 13 12 12 12 12 12 12 11 11 11 11 11 11 12 13 14 15 16 18 19 20 20 21 21 22 23
17 17 17 17 17 17 18 19 18 18 18 17 17 16 15 15 15 14 14 13 12 12 12 12 12 11 10 11 11 12 12 13 13 15 16 17 18 19 19 20 21 21 22
17 17 17 18 18 19 19 19 19 18 17 17 17 16 16 16 15 15 14 13 13 13 13 13 12 11 10 10 11 12 13 13 14 14 15 16 17 18 19 20 20 20 21
16 17 17 17 17 18 18 18 18 18 17 17 16 16 17 16 16 15 15 14 14 13 13 12 11 10 10 11 11 11 12 14 15 15 15 15 16 17 17 17 17 18 18
15 16 16 16 17 17 18 19 19 18 17 17 16 17 17 17 17 17 17 16 15 13 12 12 11 11 11 11 12 12 13 14 15 15 14 14 14 15 15 15 16 16 17
14 15 15 16 16 17 18 18 18 18 17 17 17 17 18 18 18 17 18 17 14 13 12 11 11 11 11 12 12 13 13 14 14 15 14 14 14 13 14 14 15 15 16
14 14 15 16 17 17 17 17 17 16 17 17 17 18 18 18 18 18 17 16 15 13 12 10 10 11 12 13 13 14 14 14 14 14 15 15 14 14 14 14 15 15 16
14 15 16 16 17 16 16 16 15 16 16 17 18 18 18 18 18 18 17 16 16 14 12 11 10 11 12 13 14 14 14 14 14 15 16 16 16 16 15 15 15 15 16
14 15 15 16 16 16 16 15 15 15 16 17 17 18 18 18 18 18 17 16 16 15 13 12 11 11 13 13 14 14 14 14 15 16 15 16 16 15 15 15 16 16 17
13 14 14 15 15 16 15 15 15 15 16 17 17 18 18 17 17 18 17 17 16 15 14 13 11 11 12 13 14 14 14 15 16 16 16 17 17 17 17 17 17 18 18
13 13 14 14 14 15 14 14 14 15 16 16 17 17 17 17 18 18 17 17 15 14 14 13 13 12 13 14 14 14 15 16 17 17 17 17 18 18 18 18 18 18 19
13 14 14 14 14 14 13 13 14 15 16 17 17 17 17 17 17 17 16 16 14 13 13 13 13 13 13 14 14 14 15 16 17 17 18 18 19 20 20 19 19 19 19
14 14 14 14 14 14 13 13 14 15 15 16 16 17 17 17 16 16 16 15 14 13 13 13 14 14 14 14 15 15 15 15 16 18 19 19 20 21 22 21 20 20 20
15 14 14 14 14 13 13 14 14 15 16 16 17 17 17 17 16 16 16 15 14 14 13 13 13 14 14 14 14 15 15 16 18 18 19 20 21 23 23 22 21 21 21
16 15 15 15 15 14 13 14 15 15 16 16 16 16 17 17 16 15 15 15 14 14 13 13 13 14 14 14 15 16 16 17 18 19 20 21 22 23 23 22 22 22 22
17 17 17 16 16 15 14 15 15 16 16 16 16 16 16 16 15 15 15 15 14 13 13 13 13 13 14 14 15 16 17 18 18 19 20 21 22 23 24 23 23 22 22
18 18 18 17 16 15 15 15 16 16 16 16 16 16 16 15 15 14 15 14 14 13 13 13 14 14 15 15 16 17 17 18 19 20 21 22 22 23 23 24 23 23 22
18 18 18 17 17 17 16 16 16 17 16 16 16 16 16 15 15 14 14 14 13 13 13 14 14 15 15 15 16 16 17 18 19 21 22 22 22 23 24 24 23 23 22
18 18 18 18 18 18 17 17 17 17 17 17 17 16 15 15 15 14 14 14 13 13 14 14 15 15 15 15 16 16 18 19 20 21 21 21 21 22 23 23 23 22 22
19 19 18 18 17 17 17 17 17 17 17 17 16 15 15 15 14 14 13 13 13 14 14 14 15 15 15 16 16 17 18 19 20 21 21 21 21 21 22 22 22 22 22
18 18 18 18 18 17 17 17 17 17 16 15 15 15 15 15 14 14 14 14 13 13 14 14 15 15 16 16 17 18 18 19 19 20 21 21 21 21 21 22 22 22 22
Wind_Direction
327 328 328 328 328 326 325 325 323 321 324 327 330 333 331 328 324 322 317 313 309 303 296 289 284 278 274 271 267 266 263 263 265 268 271 272 273 271 267 264 262 260 259
333 336 336 337 335 334 335 334 331 328 328 330 334 335 333 332 331 331 326 322 316 311 304 302 293 286 282 281 277 270 266 266 266 270 273 273 273 272 269 266 263 262 261
339 341 342 342 342 342 342 340 338 334 335 335 334 335 336 336 335 335 333 334 330 324 318 310 302 298 292 287 284 277 272 271 270 270 274 274 274 274 272 269 266 264 263
341 343 345 348 349 350 348 347 344 340 338 338 336 335 338 340 336 334 337 340 339 333 326 320 316 314 305 295 287 282 279 276 274 274 276 278 277 277 274 272 268 267 267
344 346 349 351 353 354 354 350 348 347 345 344 342 340 340 340 340 342 342 339 335 331 326 321 318 316 310 307 301 291 286 282 282 280 279 280 281 280 277 275 270 269 270
344 347 350 352 352 353 353 352 350 349 349 347 345 343 344 344 343 341 341 336 333 330 327 323 321 317 312 310 309 307 303 297 296 291 288 287 285 283 281 278 276 274 272
345 348 351 352 352 352 352 353 352 349 348 347 348 349 349 347 345 343 343 339 336 333 327 323 321 317 313 313 313 315 313 309 308 302 298 294 288 285 285 283 282 280 278
346 347 347 348 349 350 351 352 352 352 351 352 354 353 350 348 348 347 344 342 339 337 334 332 327 323 321 321 320 319 321 320 317 311 307 301 294 290 288 287 285 282 281
345 347 348 348 349 350 352 352 353 353 352 353 355 355 353 352 351 348 345 341 338 338 339 339 338 336 331 330 328 327 325 326 325 320 317 310 303 299 296 293 292 289 287
342 345 349 350 349 350 351 353 354 354 354 354 353 352 352 352 351 349 347 343 341 341 342 342 340 339 335 334 335 333 329 328 328 327 324 320 315 311 307 303 300 297 295
338 341 343 346 348 348 349 350 353 356 357 356 353 352 352 352 350 350 349 348 346 345 344 346 346 345 341 339 337 336 331 331 333 334 333 329 323 317 313 311 308 305 303
333 336 339 340 342 345 346 349 352 356 357 356 355 353 354 353 353 353 352 351 350 348 346 344 345 344 341 343 344 343 341 338 337 339 338 335 330 324 318 315 313 311 311
325 329 331 334 337 340 343 346 350 352 352 352 352 352 353 352 352 353 353 352 351 348 346 344 347 350 348 349 350 347 346 344 341 340 339 336 333 328 320 316 315 313 314
319 323 327 330 333 335 339 343 346 348 349 349 350 351 352 352 352 353 355 355 354 351 349 349 350 349 349 351 351 348 346 344 343 342 339 335 332 330 324 318 316 313 311
315 319 324 328 330 332 334 337 342 346 348 348 350 351 352 352 353 354 355 354 353 352 351 349 347 346 346 347 348 347 347 348 347 344 341 341 338 335 330 323 319 315 312
311 315 318 322 325 329 333 336 339 343 346 346 347 348 348 350 352 353 354 355 355 354 352 352 351 347 344 344 345 345 345 345 346 346 345 344 343 339 335 328 322 319 316
306 310 314 316 319 325 329 334 337 340 342 344 345 346 346 347 348 350 350 351 352 352 352 353 353 352 349 349 347 346 345 345 346 346 346 346 346 344 340 335 328 323 320
299 303 309 312 317 320 323 326 330 334 337 339 341 342 343 344 345 346 346 347 348 349 352 354 356 356 355 353 353 353 351 350 349 348 347 347 347 347 344 341 336 331 327
293 297 303 307 313 316 317 321 324 328 332 335 338 340 340 341 342 342 343 345 347 347 349 352 355 357 359 358 357 355 354 353 351 349 348 347 347 346 346 345 342 338 334
287 292 298 302 307 309 311 318 322 325 328 331 333 336 339 341 342 343 343 343 343 344 345 348 351 355 357 357 357 356 354 352 352 351 349 348 347 347 347 347 344 340 337
284 288 293 297 300 301 305 312 318 322 324 327 328 331 334 337 339 340 343 343 343 343 344 346 348 348 348 350 352 353 352 352 351 349 348 347 348 349 349 347 345 343 341
282 285 289 293 294 295 297 304 310 315 319 322 324 326 329 333 336 337 338 339 340 340 341 341 342 343 343 345 347 348 349 350 351 350 349 348 349 350 351 351 349 348 346
279 282 285 287 289 290 292 298 303 307 311 316 319 321 323 326 329 331 332 332 333 334 336 337 338 339 340 341 343 345 347 348 349 350 350 350 351 353 354 354 354 352 351
276 278 280 283 285 287 289 294 299 302 306 310 314 317 319 322 324 325 327 327 327 328 329 332 335 337 338 338 340 342 344 346 347 348 350 352 353 355 356 357 357 357 357
273 276 278 279 281 284 287 292 296 298 301 306 310 313 318 320 321 322 323 326 327 328 329 332 335 335 336 337 337 339 341 343 345 346 348 351 352 355 357 358 359 359 358
271 274 276 277 279 283 286 291 295 297 299 302 307 311 316 320 320 321 323 325 328 331 331 332 333 334 334 335 335 336 339 341 342 345 347 349 351 354 356 358 359 359 359
Height
5762 5758 5755 5751 5747 5744 5741 5738 5735 5733 5730 5727 5724 5720 5716 5713 5709 5706 5704 5701 5699 5697 5696 5695 5694 5694 5694 5695 5695 5695 5696 5697 5698 5699 5699 5699 5699 5699 5699 5699 5700 5701 5702
5760 5756 5752 5749 5745 5742 5738 5735 5733 5730 5727 5725 5721 5717 5714 5710 5707 5704 5700 5698 5696 5694 5693 5692 5691 5690 5690 5690 5689 5689 5690 5691 5692 5692 5692 5692 5692 5691 5691 5691 5692 5693 5693
5758 5755 5751 5747 5744 5740 5737 5734 5731 5728 5725 5722 5719 5715 5712 5708 5705 5701 5698 5696 5693 5692 5690 5689 5688 5687 5686 5685 5685 5685 5685 5685 5686 5686 5686 5685 5685 5684 5684 5684 5684 5684 5685
5757 5754 5750 5746 5742 5739 5736 5733 5730 5726 5723 5720 5716 5713 5710 5706 5703 5700 5697 5694 5692 5690 5688 5687 5685 5684 5682 5681 5680 5680 5679 5679 5680 5680 5679 5678 5678 5677 5676 5676 5677 5677 5677
5756 5753 5749 5745 5742 5738 5735 5732 5729 5725 5721 5718 5715 5711 5708 5705 5701 5698 5695 5693 5691 5689 5686 5684 5682 5680 5679 5678 5676 5675 5675 5674 5674 5673 5673 5672 5671 5670 5670 5670 5670 5670 5669
5755 5752 5748 5745 5741 5738 5734 5731 5727 5724 5720 5717 5713 5710 5707 5704 5700 5697 5694 5692 5689 5687 5684 5682 5679 5677 5676 5675 5673 5672 5671 5670 5669 5668 5667 5666 5665 5664 5664 5663 5663 5663 5663
5754 5750 5747 5744 5740 5737 5734 5730 5727 5723 5719 5716 5712 5709 5706 5703 5699 5696 5693 5690 5687 5685 5682 5680 5677 5675 5674 5672 5671 5669 5668 5666 5665 5664 5662 5661 5659 5659 5658 5658 5657 5655 5655
5753 5749 5746 5743 5740 5737 5733 5730 5726 5722 5718 5715 5712 5708 5705 5702 5698 5695 5692 5689 5686 5683 5680 5678 5675 5673 5672 5670 5669 5667 5665 5663 5661 5660 5658 5656 5654 5653 5652 5651 5650 5649 5648
5752 5749 5745 5742 5739 5736 5732 5729 5725 5721 5718 5715 5712 5708 5705 5701 5698 5694 5691 5687 5684 5681 5678 5676 5674 5671 5670 5668 5666 5665 5663 5661 5658 5656 5654 5652 5649 5648 5646 5645 5644 5643 5642
5751 5748 5745 5741 5738 5735 5732 5728 5725 5721 5718 5714 5711 5708 5704 5701 5697 5693 5689 5686 5682 5679 5677 5674 5672 5670 5668 5666 5664 5663 5661 5659 5656 5653 5651 5648 5646 5643 5642 5641 5639 5638 5637
5749 5747 5744 5741 5738 5735 5731 5728 5724 5721 5717 5714 5711 5708 5704 5700 5696 5692 5688 5684 5681 5678 5675 5673 5671 5669 5667 5665 5663 5661 5658 5656 5653 5650 5648 5645 5643 5641 5639 5637 5635 5634 5632
5747 5745 5743 5740 5737 5734 5731 5727 5724 5721 5718 5714 5711 5707 5704 5699 5695 5691 5687 5684 5680 5677 5674 5672 5670 5668 5665 5663 5661 5658 5656 5654 5651 5648 5646 5643 5640 5638 5636 5634 5632 5630 5628
5745 5743 5741 5738 5735 5732 5729 5726 5723 5720 5717 5714 5710 5707 5703 5699 5695 5691 5687 5683 5679 5676 5673 5671 5669 5667 5664 5662 5659 5657 5654 5652 5649 5646 5644 5641 5638 5635 5633 5630 5628 5626 5624
5743 5741 5738 5736 5733 5730 5728 5725 5722 5719 5716 5713 5710 5706 5702 5698 5694 5690 5686 5683 5679 5676 5672 5670 5668 5666 5663 5661 5658 5655 5653 5650 5647 5645 5642 5639 5636 5632 5630 5627 5624 5622 5620
5740 5738 5736 5733 5731 5728 5726 5723 5721 5718 5715 5712 5708 5705 5701 5698 5694 5689 5685 5682 5678 5675 5672 5669 5667 5665 5662 5660 5657 5654 5652 5649 5646 5643 5640 5637 5633 5630 5627 5624 5621 5618 5615
5737 5735 5733 5731 5729 5726 5724 5722 5719 5716 5713 5710 5706 5703 5700 5696 5692 5688 5685 5681 5677 5674 5672 5669 5666 5664 5661 5659 5656 5653 5651 5648 5645 5642 5638 5635 5631 5628 5624 5620 5617 5614 5610
5733 5732 5730 5728 5726 5724 5722 5720 5717 5715 5711 5708 5705 5701 5698 5694 5691 5687 5684 5680 5677 5674 5671 5669 5666 5663 5660 5657 5655 5652 5649 5646 5643 5640 5636 5633 5629 5625 5621 5617 5613 5609 5606
5730 5728 5727 5726 5724 5722 5720 5717 5715 5712 5710 5706 5703 5699 5696 5692 5689 5686 5682 5679 5676 5673 5671 5668 5665 5662 5659 5657 5654 5651 5648 5645 5642 5638 5635 5631 5627 5622 5618 5613 5609 5605 5601
5726 5725 5724 5722 5720 5719 5717 5715 5712 5710 5707 5704 5701 5697 5694 5690 5687 5684 5681 5678 5675 5672 5670 5667 5665 5662 5659 5656 5653 5650 5647 5643 5640 5636 5633 5629 5624 5620 5615 5610 5606 5601 5597
5721 5720 5720 5718 5717 5715 5714 5712 5709 5707 5704 5701 5698 5695 5692 5688 5685 5682 5679 5676 5673 5671 5669 5666 5664 5661 5658 5655 5652 5649 5645 5642 5638 5634 5630 5626 5621 5617 5612 5607 5603 5598 5593
5717 5716 5715 5714 5713 5711 5710 5708 5706 5703 5701 5698 5695 5692 5689 5686 5683 5680 5677 5674 5672 5669 5667 5665 5662 5660 5657 5654 5651 5647 5644 5640 5637 5633 5628 5624 5619 5614 5610 5605 5600 5595 5590
5711 5711 5710 5709 5708 5707 5706 5704 5702 5700 5697 5694 5692 5689 5686 5683 5680 5678 5675 5672 5670 5668 5666 5663 5661 5658 5655 5652 5649 5646 5643 5639 5635 5631 5626 5622 5617 5612 5607 5602 5597 5592 5587
5705 5705 5704 5704 5703 5702 5701 5699 5697 5695 5693 5690 5688 5685 5682 5680 5677 5675 5673 5670 5668 5666 5663 5661 5659 5656 5653 5650 5647 5644 5641 5637 5633 5629 5624 5619 5615 5610 5605 5600 5595 5590 5585
5699 5699 5698 5698 5697 5697 5695 5694 5692 5690 5688 5686 5684 5681 5679 5676 5674 5671 5669 5667 5665 5663 5661 5659 5656 5654 5651 5648 5645 5641 5638 5634 5630 5626 5622 5617 5613 5609 5604 5599 5594 5589 5584
5692 5692 5692 5692 5692 5691 5690 5689 5687 5685 5683 5681 5679 5677 5674 5672 5670 5668 5666 5664 5662 5660 5658 5655 5653 5651 5648 5645 5642 5638 5635 5631 5627 5623 5620 5615 5611 5607 5602 5597 5593 5588 5584
5686 5686 5686 5686 5686 5685 5684 5683 5681 5680 5678 5676 5674 5672 5670 5668 5666 5664 5662 5660 5659 5657 5655 5652 5650 5647 5644 5641 5638 5635 5632 5628 5625 5621 5617 5613 5609 5605 5601 5596 5592 5588 5583